Location: Fenile
(46.0500°N, 9.5500°E)
Time: 07:16:38
(UTC+00:00)

COSMOS 2428 - Pass Details

Date: 03 March 2021
Orbit: 846 x 857 km, 70.9° (Epoch: 11 April)

Event Time Altitude Azimuth Distance (km) Brightness Sun altitude
Rises 19:16:27 0° 192° (SSW) 3,391 5.8 -22.4°
Reaches altitude 10° 19:18:55 10° 188° (S) 2,461 5.0 -22.8°
Maximum altitude 19:24:26 59° 111° (ESE) 978 2.6 -23.7°
Enters shadow 19:24:47 57° 94° (E) 989 2.7 -23.8°
Exits shadow 19:32:05 - 30° (NNE) 3,262 5.6 -25.0°
Sets 19:32:30 0° 30° (NNE) 3,423 5.7 -25.1°
